Location: Hurstbourne Priors
(51.2000°N, 1.3667°W)
Time: 05:41:36
(UTC+00:00)

BREEZE M DEB (TANK) - Pass Details

Date: 09 April 2020
Orbit: 303 x 11878 km, 49.5° (Epoch: 02 June)

Event Time Altitude Azimuth Distance (km) Brightness Sun altitude
Rises 19:16:30 0° 180° (S) 2,255 5.3 -4.4°
Reaches altitude 10° 19:18:49 10° 148° (SSE) 1,786 4.5 -4.8°
Maximum altitude 19:20:49 14° 115° (ESE) 1,960 4.5 -5.1°
Drops below altitude 10° 19:23:47 10° 86° (E) 2,897 5.4 -5.5°
Sets 19:30:05 0° 66° (ENE) 5,478 7.0 -6.4°
